Skip Page Navigation
NASA JPL Caltech
NASA Logo - Jet Propulsion Laboratory + View the NASA Portal
+ Center for Near-Earth Object Studies
JPL Home Earth Solar System Stars & Galaxies Technology
JPL Solar System Dynamics
BODIES ORBITS EPHEMERIDES TOOLS PHYSICAL DATA DISCOVERY FAQ SITE MAP
JPL Small-Body Database Browser
Search: [ help ]  
100774 (1998 FV37)
Classification: Main-belt Asteroid          SPK-ID: 2100774
Ephemeris | Orbit Diagram | Orbital Elements | Mission Design | Physical Parameters | Discovery Circumstances | Close-Approach Data ]

[ show orbit diagram ]
Orbital Elements at Epoch 2459200.5 (2020-Dec-17.0) TDB
Reference: JPL 23 (heliocentric ecliptic J2000)
 Element Value Uncertainty (1-sigma)   Units 
e .1473424242293034 3.3688e-08  
a 2.328152154184046 9.3882e-09 au
q 1.985116571811894 7.6151e-08 au
i 4.743643883411963 3.7849e-06 deg
node 165.5477035010187 4.137e-05 deg
peri 64.39374310531475 4.3373e-05 deg
M 99.31321740243003 1.236e-05 deg
tp 2458842.551936219287
(2019-Dec-25.05193622)
4.4306e-05 TDB
period 1297.524200015532
3.55
7.8483e-06
2.149e-08
d
yr
n .2774514725780764 1.6782e-09 deg/d
Q 2.671187736556198 1.0771e-08 au
  Orbit Determination Parameters
   # obs. used (total)      708  
   data-arc span      21985 days (60.19 yr)  
   first obs. used      1960-09-24  
   last obs. used      2020-12-03  
   planetary ephem.      DE431  
   SB-pert. ephem.      SB431-N16  
   condition code      0  
   norm. resid. RMS      .54116  
   source      ORB  
   producer      Otto Matic  
   solution date      2021-Feb-24 08:26:09  

Additional Information
 Earth MOID = .979435 au 
 Jupiter MOID = 2.31903 au 
 T_jup = 3.554 
[ show covariance matrix ]

Ephemeris | Orbit Diagram | Orbital Elements | Mission Design | Physical Parameters | Discovery Circumstances | Close-Approach Data ]

Physical Parameter Table
Parameter Symbol Value Units Sigma Reference Notes
absolute magnitude H 16.35   n/a E2021B55  

100774 (1998 FV37)          Discovered 1998-Mar-20 by LINEAR at Socorro
Reference: 20051019/Numbers.arcLast Updated: 2005-10-26

[ hide close-approach data ]
Close-Approach Data   ...sorted by Date/Time (TDB)
Date/Time (TDB) Time Uncertainty
(days_HH:MM)
Body Nominal Distance (au) Minimum Distance (au) Maximum Distance (au) V-relative (km/s) V-infinity (km/s) JD (TDB) Time Uncertainty (minutes) Semi-major axis (km) Semi-minor axis (km) range-LOV angle (deg) N-sigma BP Orbit Ref. Reference Modified
1925-Mar-15 21:36 00:05 Psych 0.0174725948007793 0.0174638757514753 0.0174813165463003 3.53123387404979 3.53123367795354 2424225.399882135 4.53515940063455 554.304756364741 51.1242949449232 -38.5960208642529 32067.7197441264 T 23 CATAB v2.0f-lin.ifort 2021-Feb-24 08:26:11 2021-Feb-24 08:26
2123-Aug-24 01:02 < 00:01 Hebe 0.0105116912976119 0.0104918155037137 0.0105315686290312 7.59109175293902 7.59109167503126 2496704.543401371 0.922407798471949 1011.0854861601 41.6354269961953 -11.4529224117785 7649.33846369711 T 23 CATAB v2.0f-lin.ifort 2021-Feb-24 08:26:11 2021-Feb-24 08:26

Alternate Designations
 1998 FV37 = 1999 RZ241 = 2002 NM9 
Ephemeris | Orbit Diagram | Orbital Elements | Mission Design | Physical Parameters | Discovery Circumstances | Close-Approach Data ]
ABOUT SSD CREDITS/AWARDS PRIVACY/COPYRIGHT GLOSSARY LINKS
FirstGov 2021-Apr-12 06:48 UT
(server date/time)  
NASA Home Page
Site Manager:   Ryan S. Park
Webmaster  Alan B. Chamberlin